ANZ545 YBCS-NZCH

Flight info

Callsign ANZ545
Flight time N/A
Altitude 37000
Route AKROM Z17 OVRON A346 VEMLA/N0438F390 A346 TEKEP DCT 35S168E DCT KABKA
Aircraft A20N/M-SDE2E3FGHIRWXY/LB1

Departure

Time N/A
Airport Cairns International Airport (YBCS)

Arrival

Time 2026-04-28 05:49
Airport Christchurch International Airport (NZCH)
Time Latitude Longitude Altitude Speed Heading
2026-04-28 03:04 -27.16800 158.76927 38148 ft 537 kts 135°
2026-04-28 03:05 -27.21884 158.83086 38146 ft 537 kts 135°
2026-04-28 03:05 -27.26959 158.89244 38149 ft 537 kts 135°
2026-04-28 03:06 -27.31997 158.95365 38150 ft 537 kts 134°
2026-04-28 03:06 -27.37070 159.01538 38151 ft 537 kts 134°
2026-04-28 03:07 -27.42137 159.07713 38152 ft 537 kts 134°
2026-04-28 03:07 -27.47201 159.13892 38151 ft 537 kts 134°
2026-04-28 03:08 -27.52265 159.20081 38152 ft 537 kts 134°
2026-04-28 03:08 -27.57319 159.26266 38155 ft 536 kts 134°
2026-04-28 03:09 -27.62373 159.32461 38156 ft 536 kts 134°
2026-04-28 03:09 -27.67424 159.38660 38163 ft 536 kts 134°
2026-04-28 03:10 -27.72477 159.44873 38153 ft 536 kts 134°
2026-04-28 03:10 -27.77489 159.51043 38158 ft 536 kts 134°
2026-04-28 03:11 -27.82525 159.57252 38157 ft 536 kts 134°
2026-04-28 03:11 -27.85015 159.60328 38158 ft 523 kts 134°
2026-04-28 03:11 -27.87446 159.63337 38165 ft 515 kts 134°
2026-04-28 03:12 -27.92316 159.69353 38168 ft 522 kts 134°
2026-04-28 03:12 -27.97246 159.75454 38166 ft 529 kts 134°
2026-04-28 03:13 -28.02239 159.81645 38169 ft 535 kts 134°
2026-04-28 03:13 -28.07278 159.87904 38167 ft 537 kts 134°
2026-04-28 03:14 -28.12275 159.94121 38169 ft 537 kts 134°
2026-04-28 03:14 -28.17304 160.00385 38172 ft 537 kts 134°
2026-04-28 03:15 -28.22332 160.06657 38171 ft 538 kts 134°
2026-04-28 03:15 -28.27363 160.12944 38177 ft 538 kts 134°
2026-04-28 03:16 -28.32392 160.19237 38175 ft 538 kts 134°
2026-04-28 03:16 -28.37407 160.25522 38175 ft 536 kts 134°
2026-04-28 03:17 -28.42415 160.31808 38175 ft 537 kts 134°
2026-04-28 03:17 -28.49899 160.41220 38177 ft 537 kts 134°
2026-04-28 03:18 -28.54902 160.47523 38178 ft 537 kts 134°
2026-04-28 03:18 -28.59910 160.53843 38183 ft 537 kts 134°
2026-04-28 03:19 -28.64914 160.60167 38184 ft 537 kts 134°
2026-04-28 03:19 -28.69916 160.66498 38190 ft 538 kts 134°
2026-04-28 03:20 -28.74918 160.72840 38192 ft 538 kts 134°
2026-04-28 03:20 -28.79919 160.79189 38194 ft 538 kts 134°
2026-04-28 03:21 -28.84903 160.85528 38179 ft 536 kts 134°
2026-04-28 03:21 -28.89882 160.91869 38187 ft 536 kts 133°
2026-04-28 03:22 -28.94826 160.98176 38187 ft 536 kts 133°
2026-04-28 03:22 -28.99802 161.04534 38187 ft 536 kts 133°
2026-04-28 03:23 -29.04770 161.10890 38189 ft 536 kts 133°
2026-04-28 03:23 -29.09732 161.17250 38194 ft 535 kts 133°
2026-04-28 03:24 -29.14687 161.23611 38200 ft 535 kts 133°
2026-04-28 03:24 -29.19638 161.29976 38199 ft 535 kts 133°
2026-04-28 03:25 -29.24587 161.36348 38186 ft 535 kts 133°
2026-04-28 03:25 -29.29492 161.42675 38190 ft 534 kts 133°
2026-04-28 03:26 -29.34425 161.49046 38196 ft 534 kts 133°
2026-04-28 03:26 -29.39350 161.55419 38205 ft 534 kts 133°
2026-04-28 03:27 -29.44270 161.61795 38200 ft 534 kts 133°
2026-04-28 03:27 -29.49196 161.68187 38195 ft 534 kts 133°
2026-04-28 03:28 -29.54111 161.74577 38210 ft 534 kts 133°
2026-04-28 03:28 -29.59020 161.80969 38207 ft 533 kts 133°
2026-04-28 03:29 -29.63929 161.87371 38207 ft 533 kts 133°
2026-04-28 03:29 -29.68806 161.93742 38200 ft 533 kts 133°
2026-04-28 03:30 -29.73703 162.00148 38205 ft 533 kts 133°
2026-04-28 03:30 -29.78615 162.06585 38209 ft 533 kts 133°
2026-04-28 03:31 -29.83508 162.13007 38210 ft 533 kts 133°
2026-04-28 03:31 -29.88362 162.19389 38223 ft 533 kts 133°
2026-04-28 03:32 -29.93256 162.25833 38215 ft 533 kts 133°
2026-04-28 03:32 -29.98138 162.32271 38218 ft 533 kts 133°
2026-04-28 03:33 -30.02985 162.38675 38220 ft 533 kts 133°
2026-04-28 03:33 -30.07862 162.45128 38222 ft 533 kts 133°
2026-04-28 03:34 -30.12732 162.51582 38232 ft 533 kts 132°
2026-04-28 03:34 -30.17600 162.58044 38236 ft 532 kts 132°
2026-04-28 03:35 -30.22386 162.64409 38230 ft 532 kts 132°
2026-04-28 03:35 -30.27241 162.70875 38237 ft 532 kts 132°
2026-04-28 03:36 -30.32097 162.77352 38240 ft 532 kts 132°
2026-04-28 03:36 -30.36947 162.83831 38239 ft 532 kts 132°
2026-04-28 03:37 -30.41795 162.90313 38235 ft 532 kts 132°
2026-04-28 03:37 -30.46638 162.96799 38243 ft 532 kts 132°
2026-04-28 03:38 -30.51789 163.02920 38241 ft 529 kts 141°
2026-04-28 03:38 -30.57255 163.08557 38244 ft 529 kts 141°
2026-04-28 03:39 -30.62761 163.14246 38245 ft 529 kts 141°
2026-04-28 03:39 -30.68246 163.19930 38250 ft 528 kts 141°
2026-04-28 03:40 -30.73725 163.25620 38254 ft 528 kts 141°
2026-04-28 03:40 -30.79202 163.31319 38257 ft 528 kts 141°
2026-04-28 03:41 -30.83748 163.36058 38256 ft 527 kts 141°
2026-04-28 03:41 -30.89211 163.41762 38260 ft 527 kts 141°
2026-04-28 03:42 -30.94663 163.47464 38257 ft 526 kts 141°
2026-04-28 03:42 -31.00073 163.53130 38260 ft 526 kts 140°
2026-04-28 03:43 -31.05511 163.58836 38260 ft 525 kts 140°
2026-04-28 03:43 -31.10938 163.64539 38259 ft 524 kts 140°
2026-04-28 03:44 -31.16358 163.70244 38263 ft 524 kts 140°
2026-04-28 03:44 -31.21765 163.75944 38265 ft 523 kts 140°
2026-04-28 03:45 -31.27163 163.81643 38264 ft 522 kts 140°
2026-04-28 03:45 -31.32553 163.87344 38266 ft 522 kts 140°
2026-04-28 03:46 -31.37899 163.93007 38269 ft 521 kts 140°
2026-04-28 03:46 -31.43273 163.98709 38268 ft 520 kts 140°
2026-04-28 03:47 -31.48636 164.04409 38269 ft 520 kts 140°
2026-04-28 03:47 -31.53995 164.10112 38275 ft 519 kts 140°
2026-04-28 03:48 -31.59342 164.15814 38269 ft 519 kts 140°
2026-04-28 03:48 -31.64650 164.21483 38272 ft 518 kts 140°
2026-04-28 03:49 -31.69979 164.27182 38277 ft 518 kts 140°
2026-04-28 03:49 -31.75298 164.32881 38282 ft 517 kts 140°
2026-04-28 03:50 -31.80617 164.38589 38281 ft 517 kts 140°
2026-04-28 03:50 -31.85919 164.44288 38287 ft 516 kts 140°
2026-04-28 03:51 -31.91212 164.49986 38287 ft 515 kts 140°
2026-04-28 03:51 -31.96466 164.55652 38286 ft 515 kts 140°
2026-04-28 03:52 -32.01746 164.61355 38281 ft 514 kts 140°
2026-04-28 03:52 -32.07016 164.67057 38274 ft 514 kts 140°
2026-04-28 03:53 -32.12278 164.72758 38282 ft 513 kts 140°
2026-04-28 03:53 -32.17537 164.78467 38280 ft 513 kts 140°
2026-04-28 03:54 -32.22789 164.84177 38282 ft 513 kts 140°
2026-04-28 03:54 -32.28034 164.89888 38298 ft 512 kts 140°
2026-04-28 03:55 -32.33240 164.95567 38295 ft 512 kts 140°
2026-04-28 03:55 -32.38466 165.01277 38303 ft 511 kts 140°
2026-04-28 03:56 -32.43687 165.06991 38300 ft 511 kts 139°
2026-04-28 03:56 -32.48901 165.12707 38308 ft 510 kts 139°
2026-04-28 03:57 -32.54105 165.18421 38300 ft 510 kts 139°
2026-04-28 03:57 -32.59305 165.24140 38304 ft 509 kts 139°
2026-04-28 03:58 -32.64490 165.29852 38305 ft 508 kts 139°
2026-04-28 03:58 -32.69665 165.35563 38306 ft 508 kts 139°
2026-04-28 03:59 -32.74836 165.41278 38304 ft 507 kts 139°
2026-04-28 03:59 -32.79988 165.46982 38297 ft 506 kts 139°
2026-04-28 04:00 -32.85134 165.52689 38319 ft 505 kts 139°
2026-04-28 04:00 -32.90245 165.58367 38308 ft 506 kts 139°
2026-04-28 04:01 -32.95376 165.64076 38321 ft 504 kts 139°
2026-04-28 04:01 -33.00497 165.69784 38310 ft 503 kts 139°
2026-04-28 04:02 -33.05599 165.75479 38313 ft 502 kts 139°
2026-04-28 04:02 -33.10697 165.81181 38314 ft 501 kts 139°
2026-04-28 04:03 -33.15747 165.86837 38306 ft 500 kts 139°
2026-04-28 04:03 -33.20819 165.92528 38310 ft 499 kts 139°
2026-04-28 04:04 -33.25873 165.98209 38310 ft 499 kts 139°
2026-04-28 04:04 -33.30921 166.03890 38311 ft 498 kts 139°
2026-04-28 04:05 -33.35959 166.09572 38312 ft 497 kts 139°
2026-04-28 04:05 -33.40985 166.15248 38316 ft 497 kts 139°
2026-04-28 04:06 -33.46004 166.20927 38316 ft 496 kts 139°
2026-04-28 04:06 -33.51012 166.26602 38318 ft 496 kts 138°
2026-04-28 04:07 -33.56018 166.32285 38321 ft 495 kts 138°
2026-04-28 04:07 -33.60127 166.36957 38325 ft 495 kts 138°
2026-04-28 04:08 -33.65102 166.42622 38327 ft 494 kts 138°
2026-04-28 04:08 -33.70088 166.48308 38331 ft 494 kts 138°
2026-04-28 04:09 -33.75069 166.54000 38332 ft 494 kts 138°
2026-04-28 04:09 -33.80043 166.59691 38336 ft 493 kts 138°
2026-04-28 04:10 -33.85006 166.65381 38337 ft 493 kts 138°
2026-04-28 04:10 -33.89962 166.71072 38338 ft 492 kts 138°
2026-04-28 04:11 -33.94914 166.76768 38335 ft 492 kts 138°
2026-04-28 04:11 -33.99852 166.82458 38334 ft 491 kts 138°
2026-04-28 04:12 -34.04787 166.88155 38336 ft 490 kts 138°
2026-04-28 04:12 -34.09677 166.93808 38339 ft 490 kts 138°
2026-04-28 04:13 -34.14600 166.99510 38336 ft 489 kts 138°
2026-04-28 04:13 -34.19512 167.05207 38336 ft 489 kts 138°
2026-04-28 04:14 -34.24409 167.10897 38335 ft 488 kts 138°
2026-04-28 04:14 -34.29297 167.16585 38335 ft 487 kts 138°
2026-04-28 04:15 -34.34178 167.22277 38336 ft 487 kts 138°
2026-04-28 04:16 -34.41448 167.30771 38343 ft 486 kts 137°
2026-04-28 04:16 -34.46304 167.36457 38334 ft 485 kts 137°
2026-04-28 04:17 -34.51150 167.42142 38342 ft 484 kts 137°
2026-04-28 04:17 -34.55987 167.47824 38339 ft 484 kts 137°
2026-04-28 04:18 -34.60815 167.53506 38338 ft 483 kts 137°
2026-04-28 04:18 -34.65631 167.59184 38341 ft 482 kts 137°
2026-04-28 04:19 -34.70441 167.64865 38340 ft 481 kts 137°
2026-04-28 04:19 -34.75239 167.70540 38342 ft 481 kts 137°
2026-04-28 04:20 -34.79998 167.76179 38342 ft 480 kts 137°
2026-04-28 04:20 -34.84781 167.81853 38349 ft 479 kts 137°
2026-04-28 04:21 -34.89559 167.87529 38351 ft 479 kts 137°
2026-04-28 04:21 -34.94322 167.93195 38348 ft 478 kts 137°
2026-04-28 04:22 -34.99411 167.98336 38344 ft 473 kts 151°
2026-04-28 04:22 -35.05389 168.01496 38346 ft 466 kts 168°
2026-04-28 04:23 -35.11680 168.03303 38343 ft 464 kts 170°
2026-04-28 04:23 -35.17971 168.05102 38345 ft 464 kts 170°
2026-04-28 04:24 -35.24251 168.06895 38350 ft 463 kts 169°
2026-04-28 04:24 -35.30532 168.08688 38350 ft 463 kts 169°
2026-04-28 04:25 -35.36803 168.10481 38354 ft 462 kts 169°
2026-04-28 04:25 -35.43065 168.12275 38357 ft 462 kts 169°
2026-04-28 04:26 -35.49318 168.14070 38356 ft 461 kts 169°
2026-04-28 04:26 -35.55523 168.15854 38360 ft 461 kts 169°
2026-04-28 04:27 -35.61762 168.17650 38358 ft 460 kts 169°
2026-04-28 04:27 -35.67989 168.19447 38355 ft 459 kts 169°
2026-04-28 04:28 -35.74200 168.21241 38359 ft 458 kts 169°
2026-04-28 04:28 -35.80408 168.23037 38360 ft 457 kts 169°
2026-04-28 04:29 -35.85557 168.24528 38359 ft 457 kts 169°
2026-04-28 04:29 -35.91746 168.26324 38360 ft 456 kts 168°
2026-04-28 04:30 -35.97923 168.28120 38353 ft 455 kts 168°
2026-04-28 04:30 -36.04085 168.29914 38354 ft 455 kts 168°
2026-04-28 04:31 -36.10240 168.31709 38354 ft 454 kts 168°
2026-04-28 04:31 -36.16391 168.33506 38353 ft 453 kts 168°
2026-04-28 04:32 -36.22491 168.35290 38354 ft 453 kts 168°
2026-04-28 04:32 -36.28629 168.37089 38356 ft 453 kts 168°
2026-04-28 04:33 -36.34765 168.38890 38357 ft 452 kts 168°
2026-04-28 04:33 -36.40894 168.40690 38362 ft 452 kts 168°
2026-04-28 04:34 -36.47012 168.42492 38362 ft 452 kts 168°
2026-04-28 04:34 -36.53135 168.44297 38364 ft 452 kts 168°
2026-04-28 04:35 -36.59247 168.46104 38363 ft 451 kts 168°
2026-04-28 04:35 -36.65346 168.47909 38365 ft 451 kts 168°
2026-04-28 04:36 -36.71409 168.49706 38364 ft 450 kts 168°
2026-04-28 04:36 -36.77500 168.51514 38364 ft 449 kts 168°
2026-04-28 04:37 -36.83580 168.53323 38367 ft 449 kts 168°
2026-04-28 04:37 -36.89654 168.55132 38365 ft 448 kts 168°
2026-04-28 04:38 -36.95719 168.56942 38374 ft 448 kts 168°
2026-04-28 04:38 -37.01775 168.58752 38368 ft 447 kts 168°
2026-04-28 04:39 -37.07824 168.60562 38366 ft 447 kts 168°
2026-04-28 04:39 -37.13875 168.62375 38367 ft 446 kts 168°
2026-04-28 04:40 -37.19875 168.64177 38370 ft 446 kts 168°
2026-04-28 04:40 -37.25905 168.65992 38364 ft 445 kts 168°
2026-04-28 04:41 -37.31937 168.67811 38371 ft 445 kts 168°
2026-04-28 04:41 -37.37958 168.69627 38370 ft 445 kts 168°
2026-04-28 04:42 -37.43980 168.71448 38375 ft 445 kts 168°
2026-04-28 04:42 -37.49994 168.73268 38369 ft 444 kts 168°
2026-04-28 04:43 -37.56004 168.75090 38373 ft 444 kts 168°
2026-04-28 04:43 -37.62017 168.76916 38372 ft 444 kts 168°
2026-04-28 04:44 -37.68026 168.78745 38375 ft 444 kts 168°
2026-04-28 04:44 -37.73987 168.80562 38376 ft 443 kts 168°
2026-04-28 04:45 -37.79988 168.82395 38378 ft 443 kts 168°
2026-04-28 04:45 -37.85984 168.84228 38379 ft 443 kts 168°
2026-04-28 04:46 -37.91975 168.86063 38374 ft 443 kts 168°
2026-04-28 04:46 -37.97959 168.87899 38373 ft 442 kts 168°
2026-04-28 04:47 -38.03942 168.89738 38373 ft 442 kts 168°
2026-04-28 04:47 -38.09922 168.91579 38375 ft 442 kts 168°
2026-04-28 04:48 -38.15900 168.93423 38376 ft 442 kts 168°
2026-04-28 04:48 -38.21835 168.95256 38374 ft 441 kts 168°
2026-04-28 04:49 -38.27808 168.97104 38374 ft 441 kts 168°
2026-04-28 04:49 -38.33773 168.98953 38373 ft 441 kts 168°
2026-04-28 04:50 -38.39738 169.00805 38370 ft 441 kts 168°
2026-04-28 04:50 -38.45688 169.02656 38374 ft 440 kts 168°
2026-04-28 04:51 -38.51641 169.04510 38378 ft 440 kts 168°
2026-04-28 04:51 -38.57589 169.06367 38379 ft 440 kts 168°
2026-04-28 04:52 -38.63530 169.08224 38380 ft 439 kts 168°
2026-04-28 04:52 -38.69434 169.10073 38379 ft 439 kts 168°
2026-04-28 04:53 -38.75366 169.11933 38380 ft 439 kts 168°
2026-04-28 04:53 -38.81291 169.13795 38377 ft 438 kts 169°
2026-04-28 04:54 -38.87218 169.15660 38378 ft 438 kts 169°
2026-04-28 04:54 -38.93134 169.17525 38373 ft 437 kts 169°
2026-04-28 04:55 -38.99042 169.19391 38373 ft 437 kts 169°
2026-04-28 04:55 -39.04950 169.21260 38377 ft 437 kts 169°
2026-04-28 04:56 -39.10847 169.23129 38381 ft 436 kts 169°
2026-04-28 04:56 -39.16742 169.25000 38383 ft 436 kts 169°
2026-04-28 04:57 -39.22633 169.26873 38377 ft 436 kts 169°
2026-04-28 04:57 -39.27522 169.28430 38373 ft 435 kts 169°
2026-04-28 04:58 -39.34394 169.30623 38376 ft 435 kts 169°
2026-04-28 04:58 -39.38280 169.31865 38378 ft 435 kts 169°
2026-04-28 04:59 -39.46297 169.34431 38377 ft 434 kts 169°
2026-04-28 04:59 -39.52160 169.36312 38377 ft 434 kts 169°
2026-04-28 05:00 -39.58019 169.38194 38375 ft 433 kts 169°
2026-04-28 05:00 -39.63844 169.40069 38375 ft 432 kts 169°
2026-04-28 05:01 -39.69690 169.41954 38368 ft 433 kts 169°
2026-04-28 05:01 -39.75537 169.43842 38372 ft 433 kts 169°
2026-04-28 05:02 -39.81381 169.45733 38368 ft 433 kts 169°
2026-04-28 05:02 -39.87223 169.47626 38369 ft 433 kts 169°
2026-04-28 05:03 -39.93043 169.49516 38374 ft 433 kts 170°
2026-04-28 05:03 -39.98892 169.51419 38370 ft 433 kts 170°
2026-04-28 05:04 -40.04748 169.53327 38373 ft 434 kts 170°
2026-04-28 05:04 -40.10608 169.55240 38374 ft 434 kts 170°
2026-04-28 05:05 -40.16471 169.57157 38374 ft 434 kts 170°
2026-04-28 05:05 -40.22297 169.59066 38369 ft 434 kts 170°
2026-04-28 05:06 -40.28151 169.60987 38369 ft 434 kts 170°
2026-04-28 05:06 -40.34010 169.62913 38366 ft 433 kts 170°
2026-04-28 05:07 -40.39857 169.64838 38366 ft 433 kts 170°
2026-04-28 05:07 -40.45703 169.66766 38308 ft 433 kts 168°
2026-04-28 05:08 -40.50597 169.68370 38352 ft 439 kts 168°
2026-04-28 05:08 -40.56517 169.70330 38355 ft 437 kts 168°
2026-04-28 05:09 -40.62421 169.72289 38356 ft 437 kts 167°
2026-04-28 05:09 -40.68309 169.74246 38360 ft 436 kts 167°
2026-04-28 05:10 -40.74195 169.76205 38355 ft 435 kts 167°
2026-04-28 05:10 -40.80029 169.78150 38365 ft 435 kts 167°
2026-04-28 05:11 -40.85898 169.80111 38355 ft 435 kts 167°
2026-04-28 05:11 -40.91767 169.82075 38356 ft 434 kts 167°
2026-04-28 05:12 -40.97629 169.84040 38356 ft 434 kts 167°
2026-04-28 05:12 -41.03477 169.86005 38354 ft 433 kts 167°
2026-04-28 05:13 -41.09321 169.87972 38355 ft 433 kts 167°
2026-04-28 05:13 -41.15160 169.89940 38350 ft 433 kts 167°
2026-04-28 05:14 -41.20990 169.91910 38351 ft 432 kts 167°
2026-04-28 05:14 -41.26774 169.93867 38352 ft 431 kts 167°
2026-04-28 05:15 -41.32599 169.95842 38345 ft 431 kts 167°
2026-04-28 05:15 -41.38409 169.97816 38346 ft 430 kts 167°
2026-04-28 05:16 -41.44210 169.99790 38341 ft 430 kts 167°
2026-04-28 05:16 -41.50002 170.01764 38344 ft 430 kts 167°
2026-04-28 05:17 -41.58685 170.04729 38342 ft 429 kts 167°
2026-04-28 05:17 -41.64470 170.06708 38346 ft 429 kts 167°
2026-04-28 05:18 -41.70108 170.09291 38343 ft 430 kts 156°
2026-04-28 05:18 -41.75232 170.13327 38339 ft 432 kts 145°
2026-04-28 05:19 -41.79735 170.18754 38337 ft 434 kts 134°
2026-04-28 05:19 -41.83321 170.25237 38336 ft 438 kts 123°
2026-04-28 05:20 -41.85919 170.32647 38333 ft 441 kts 111°
2026-04-28 05:20 -41.87393 170.40665 38328 ft 445 kts 100°
2026-04-28 05:21 -41.89057 170.48551 38327 ft 437 kts 122°
2026-04-28 05:21 -41.90779 170.51881 38319 ft 433 kts 135°
2026-04-28 05:21 -41.92987 170.54593 38317 ft 429 kts 144°
2026-04-28 05:22 -41.97918 170.59107 38323 ft 429 kts 149°
2026-04-28 05:22 -42.02944 170.63464 38330 ft 430 kts 149°
2026-04-28 05:23 -42.07946 170.67889 38340 ft 431 kts 148°
2026-04-28 05:23 -42.12953 170.72365 38345 ft 432 kts 148°
2026-04-28 05:24 -42.17959 170.76853 38340 ft 432 kts 148°
2026-04-28 05:24 -42.22918 170.81307 38337 ft 430 kts 148°
2026-04-28 05:25 -42.27891 170.85782 38072 ft 428 kts 148°
2026-04-28 05:25 -42.30365 170.88010 37786 ft 427 kts 148°
2026-04-28 05:25 -42.32840 170.90241 37519 ft 429 kts 148°
2026-04-28 05:26 -42.35327 170.92484 37247 ft 430 kts 148°
2026-04-28 05:26 -42.37810 170.94725 36994 ft 429 kts 148°
2026-04-28 05:26 -42.40295 170.96971 36737 ft 429 kts 148°
2026-04-28 05:26 -42.42778 170.99219 36483 ft 429 kts 148°
2026-04-28 05:27 -42.45266 171.01473 36231 ft 429 kts 148°
2026-04-28 05:27 -42.47742 171.03719 35882 ft 429 kts 148°
2026-04-28 05:27 -42.50227 171.05975 35227 ft 431 kts 148°
2026-04-28 05:27 -42.52732 171.08250 34365 ft 436 kts 147°
2026-04-28 05:28 -42.55271 171.10559 33245 ft 443 kts 147°
2026-04-28 05:28 -42.57817 171.12877 32205 ft 448 kts 147°
2026-04-28 05:28 -42.60412 171.15244 31211 ft 451 kts 147°
2026-04-28 05:28 -42.63024 171.17628 30210 ft 454 kts 147°
2026-04-28 05:29 -42.65644 171.20021 29023 ft 452 kts 147°
2026-04-28 05:29 -42.68237 171.22394 27904 ft 447 kts 147°
2026-04-28 05:29 -42.70795 171.24736 26863 ft 440 kts 147°
2026-04-28 05:29 -42.73324 171.27054 25845 ft 435 kts 147°
2026-04-28 05:30 -42.75816 171.29339 24853 ft 430 kts 147°
2026-04-28 05:30 -42.78289 171.31610 23903 ft 426 kts 147°
2026-04-28 05:30 -42.80732 171.33854 22816 ft 421 kts 147°
2026-04-28 05:30 -42.83143 171.36073 22214 ft 414 kts 147°
2026-04-28 05:31 -42.85508 171.38252 21649 ft 408 kts 147°
2026-04-28 05:31 -42.87847 171.40408 21079 ft 403 kts 147°
2026-04-28 05:31 -42.90154 171.42536 20509 ft 398 kts 147°
2026-04-28 05:31 -42.92433 171.44642 19944 ft 393 kts 147°
2026-04-28 05:32 -42.94660 171.46701 19368 ft 390 kts 147°
2026-04-28 05:32 -42.96891 171.48778 18813 ft 386 kts 145°
2026-04-28 05:32 -42.98923 171.51165 18227 ft 384 kts 136°
2026-04-28 05:32 -43.00637 171.53947 17670 ft 381 kts 127°
2026-04-28 05:33 -43.02069 171.56973 17115 ft 377 kts 124°
2026-04-28 05:33 -43.03476 171.59980 16564 ft 374 kts 124°
2026-04-28 05:33 -43.04875 171.62955 16021 ft 370 kts 124°
2026-04-28 05:33 -43.06262 171.65906 15490 ft 368 kts 124°
2026-04-28 05:34 -43.07643 171.68848 14884 ft 367 kts 124°
2026-04-28 05:34 -43.09035 171.71818 14114 ft 373 kts 124°
2026-04-28 05:34 -43.10423 171.74786 13625 ft 367 kts 124°
2026-04-28 05:34 -43.11786 171.77705 13086 ft 362 kts 124°
2026-04-28 05:35 -43.13244 171.80492 12568 ft 358 kts 132°
2026-04-28 05:35 -43.14967 171.82912 12036 ft 353 kts 141°
2026-04-28 05:35 -43.16798 171.85138 11526 ft 351 kts 140°
2026-04-28 05:35 -43.18606 171.87362 11004 ft 348 kts 140°
2026-04-28 05:36 -43.20400 171.89579 10505 ft 346 kts 140°
2026-04-28 05:36 -43.22171 171.91771 10176 ft 338 kts 140°
2026-04-28 05:36 -43.23882 171.93892 10057 ft 323 kts 140°
2026-04-28 05:36 -43.25502 171.95902 10044 ft 306 kts 140°
2026-04-28 05:37 -43.27018 171.97782 10045 ft 292 kts 140°
2026-04-28 05:37 -43.28537 171.99661 10038 ft 296 kts 141°
2026-04-28 05:37 -43.30183 172.01338 9944 ft 293 kts 151°
2026-04-28 05:37 -43.31927 172.02799 9493 ft 293 kts 150°
2026-04-28 05:38 -43.33666 172.04265 8886 ft 292 kts 150°
2026-04-28 05:38 -43.35393 172.05729 8296 ft 290 kts 149°
2026-04-28 05:38 -43.37102 172.07183 7706 ft 288 kts 149°
2026-04-28 05:38 -43.38794 172.08626 7248 ft 283 kts 149°
2026-04-28 05:39 -43.40441 172.10033 7066 ft 273 kts 149°
2026-04-28 05:39 -43.42016 172.11380 7020 ft 259 kts 149°
2026-04-28 05:39 -43.43497 172.12649 7019 ft 243 kts 149°
2026-04-28 05:39 -43.44893 172.13845 7017 ft 234 kts 149°
2026-04-28 05:40 -43.46299 172.15048 7010 ft 239 kts 149°
2026-04-28 05:40 -43.47706 172.16252 6808 ft 238 kts 149°
2026-04-28 05:40 -43.49118 172.17460 6349 ft 239 kts 148°
2026-04-28 05:40 -43.50528 172.18668 5902 ft 238 kts 148°
2026-04-28 05:41 -43.51932 172.19872 5459 ft 237 kts 148°
2026-04-28 05:41 -43.53322 172.21066 5121 ft 232 kts 148°
2026-04-28 05:41 -43.54629 172.22202 5016 ft 222 kts 144°
2026-04-28 05:41 -43.55807 172.23545 4966 ft 215 kts 139°
2026-04-28 05:42 -43.56928 172.24883 4760 ft 207 kts 139°
2026-04-28 05:42 -43.58023 172.26175 4354 ft 207 kts 139°
2026-04-28 05:42 -43.59107 172.27449 3982 ft 207 kts 139°
2026-04-28 05:42 -43.60197 172.28732 3625 ft 205 kts 139°
2026-04-28 05:43 -43.61283 172.30013 3254 ft 205 kts 139°
2026-04-28 05:43 -43.62362 172.31285 2897 ft 204 kts 139°
2026-04-28 05:43 -43.63383 172.32585 2664 ft 194 kts 125°
2026-04-28 05:43 -43.63752 172.34291 2346 ft 185 kts 81°
2026-04-28 05:44 -43.63357 172.35859 2287 ft 165 kts 58°
2026-04-28 05:44 -43.62667 172.37091 2051 ft 159 kts 45°
2026-04-28 05:44 -43.61834 172.38164 2004 ft 166 kts 40°
2026-04-28 05:44 -43.60964 172.39188 2006 ft 164 kts 39°
2026-04-28 05:45 -43.60092 172.40203 2003 ft 164 kts 39°
2026-04-28 05:45 -43.59220 172.41219 2008 ft 164 kts 39°
2026-04-28 05:45 -43.58351 172.42230 1998 ft 160 kts 39°
2026-04-28 05:45 -43.57544 172.43169 1992 ft 146 kts 39°
2026-04-28 05:46 -43.56757 172.44083 1973 ft 150 kts 39°
2026-04-28 05:46 -43.55964 172.45004 1770 ft 148 kts 39°
2026-04-28 05:46 -43.55209 172.45882 1584 ft 140 kts 40°
2026-04-28 05:46 -43.54440 172.46775 1398 ft 146 kts 40°
2026-04-28 05:47 -43.53668 172.47671 1204 ft 144 kts 40°
2026-04-28 05:47 -43.52902 172.48560 1009 ft 143 kts 40°
2026-04-28 05:47 -43.52141 172.49443 823 ft 142 kts 41°
2026-04-28 05:47 -43.51387 172.50315 644 ft 140 kts 41°
2026-04-28 05:48 -43.50649 172.51187 427 ft 139 kts 40°
2026-04-28 05:48 -43.49911 172.52037 209 ft 136 kts 40°
2026-04-28 05:48 -43.49204 172.52853 120 ft 123 kts 40°
2026-04-28 05:48 -43.48708 172.53425 114 ft 63 kts 40°
2026-04-28 05:49 -43.48526 172.53653 115 ft 20 kts 58°
2026-04-28 05:49 -43.48465 172.53874 111 ft 23 kts 72°
2026-04-28 05:49 -43.48467 172.53965 107 ft 1 kts 120°
2026-04-28 05:49 -43.48468 172.53969 107 ft 0 kts 119°
2026-04-28 05:50 -43.48484 172.54004 109 ft 12 kts 136°
2026-04-28 05:50 -43.48530 172.53989 110 ft 14 kts 222°
2026-04-28 05:50 -43.48632 172.53898 113 ft 15 kts 218°
2026-04-28 05:51 -43.48659 172.53894 111 ft 1 kts 142°
2026-04-28 05:51 -43.48684 172.53923 114 ft 0 kts 151°
2026-04-28 05:51 -43.48695 172.53931 112 ft 1 kts 154°
2026-04-28 05:51 -43.48697 172.53932 112 ft 0 kts 155°